[[{"header":{"parameterUnit":"m.s-1","parameterCategory":1,"la1":30.2991,"la2":30.254,"lo1":-89.0895,"lo2":-89.0444,"dy":0.0017,"dx":0.0017,"nx":28,"ny":28,"refTime":"2024-07-14T03:00:00:Z","depth":0,"parameterNumber":2,"parameterNumberName":"U-component_of_WINDS"},"data":[0,0,0,0,0,0,0,0,0,0,0,0,0,0,0,0,0,0,0,0,0,0,0,0,0,0,0,0,0,0,0,0,0,0,0,0,0,0,0,0,0,0,0,0,0,0,0,0,0,0,0,0,0,0,0,0,0,0,2.328,2.3281,0,2.3351,2.3351,2.3352,2.3387,2.3387,2.3387,2.3387,2.3456,2.3457,2.3459,0,0,0,0,0,0,0,0,0,0,0,0,0,2.3174,2.3176,2.328,2.3281,2.3282,2.335,2.3351,2.3352,2.3387,2.3387,2.3387,2.3387,2.3455,2.3457,2.3459,0,0,0,0,0,0,0,0,0,0,0,0,0,2.3229,2.3176,2.328,2.3308,2.3311,2.335,2.3351,2.3353,2.3387,2.3387,2.3387,2.3387,2.3454,2.3457,2.346,2.3475,0,0,2.3468,2.3469,0,0,0,0,0,0,0,0,2.3226,2.3233,2.3303,2.3306,2.331,2.336,2.3339,2.3394,2.3387,2.3358,2.3387,2.3387,2.3424,2.3429,2.3442,2.3479,2.3482,2.3468,2.347,2.3471,2.3472,0,0,0,0,0,0,0,2.3222,2.3231,2.3308,2.3304,2.3308,2.3316,2.3324,2.3349,2.339,2.3361,2.3363,2.3371,2.3425,2.3439,2.3444,2.3483,2.3468,2.347,2.3472,2.3473,2.3537,2.3537,0,0,0,0,0,0,2.3215,2.3227,2.3306,2.331,2.3267,2.3318,2.3327,2.3344,2.339,2.3397,2.3371,2.3373,2.3434,2.344,2.3446,2.3469,2.3471,2.3473,2.3475,2.3537,2.3537,2.3537,0,0,0,0,0,0,2.3212,2.3221,2.3303,2.3269,2.328,2.332,2.3339,2.3345,2.3359,2.3398,2.3405,2.3378,2.3435,2.3442,2.3468,2.3471,2.3475,2.3477,2.3537,2.3537,2.3537,2.3513,0,0,0,0,0,0,2.3209,2.322,2.3227,2.3269,2.3282,2.3325,2.3339,2.3347,2.3364,2.3367,2.3406,2.3412,2.3435,2.3464,2.3471,2.3475,2.3479,2.3537,2.3537,2.3537,2.3514,2.3512,2.3511,0,0,0,0,0,2.3205,2.3216,2.3227,2.3236,2.3292,2.3325,2.3332,2.3359,2.3364,2.3371,2.3396,2.3411,2.347,2.3467,2.3475,2.348,2.3537,2.3537,2.3537,2.3514,2.3513,2.3511,0,0,0,0,0,0,2.3171,2.3222,2.3235,2.326,2.3288,2.3331,2.334,2.3356,2.3382,2.3383,2.3415,2.3424,2.3447,2.3466,2.3461,2.3498,2.3505,2.3507,2.3485,2.3483,2.3482,2.3477,2.3481,0,0,0,0,0,2.3167,2.3191,2.3234,2.3252,2.3266,2.33,2.3316,2.3335,2.3364,2.3376,2.3402,2.343,2.3455,2.347,2.3495,2.3517,2.3526,2.3524,2.3523,2.3522,2.3523,2.3537,2.3536,2.3538,2.3538,2.3538,0,0,2.3158,2.3189,2.3202,2.3246,2.327,2.3293,2.331,2.3333,2.3351,2.3379,2.3406,2.3426,2.3459,2.3483,2.3495,2.35,2.3524,2.3522,2.3521,2.3522,2.3537,2.3537,2.3536,2.3538,2.3538,2.3538,0,0,2.3154,2.318,2.3199,2.3223,2.3259,2.3283,2.3287,2.3327,2.3343,2.3371,2.3393,2.3413,2.3455,2.3478,2.3495,2.3501,2.3516,2.3508,2.3501,2.3514,2.3514,2.3514,2.3517,2.3517,2.3509,2.3509,2.3509,0,2.3138,2.3175,2.3206,2.3229,2.3248,2.3276,2.3295,2.3316,2.3358,2.337,2.3375,2.343,2.3453,2.3484,2.3485,2.3498,2.3504,2.3503,2.3512,2.3512,2.3512,2.3515,2.3516,2.3508,2.3508,2.3508,2.3508,0,2.3153,2.3179,2.3189,2.3231,2.3252,2.3272,2.3306,2.3322,2.334,2.3362,2.3391,2.342,2.3452,2.3461,2.3477,2.3494,2.3496,2.3506,2.3513,2.3511,2.3514,2.3515,2.3506,2.3506,2.3507,2.3507,0,0,2.3129,2.3189,2.3193,2.3213,2.3256,2.3275,2.3297,2.333,2.3344,2.3372,2.3392,2.3427,2.3437,2.3456,2.3476,2.3487,2.3491,2.3496,2.3497,2.3494,2.3512,2.3504,2.3505,2.3501,2.3502,2.3502,2.3509,0,2.3131,2.3173,2.3202,2.3233,2.3257,2.3285,2.3305,2.3333,2.3355,2.3378,2.3402,2.3427,2.3438,2.345,2.3462,2.3488,2.3495,2.3488,2.3519,2.352,2.351,2.3507,2.3499,2.3504,2.3511,2.3511,2.3511,0,2.3138,2.3168,2.3202,2.3244,2.3255,2.3272,2.3305,2.3327,2.3359,2.3375,2.3397,2.3417,2.3442,2.3448,2.3481,2.3476,2.349,2.3505,2.3506,2.351,2.3515,2.3511,2.3506,2.3507,2.3513,2.3513,2.3513,0,2.3117,2.3165,2.3192,2.3208,2.3258,2.3269,2.329,2.3323,2.3342,2.337,2.3383,2.3413,2.3429,2.3452,2.348,2.3482,2.3511,2.3519,2.3524,2.3524,2.3529,2.3528,2.3527,2.3538,2.3538,2.3538,2.3538,0,2.3116,2.3136,2.3184,2.32,2.3223,2.3256,2.3278,2.3301,2.333,2.3351,2.3377,2.3396,2.3432,2.3455,2.3477,2.3502,2.3509,2.3521,2.3527,2.3519,2.3517,2.3529,2.3529,2.3538,2.3538,2.3538,2.3538,0,2.3096,2.3129,2.316,2.3206,2.3218,2.3233,2.3271,2.3288,2.3312,2.3338,2.3346,2.3384,2.3413,2.3443,2.3482,2.3497,2.352,2.3528,2.351,2.3513,2.3516,2.3516,2.3522,2.3525,2.3534,2.3534,2.3534,0,2.3093,2.3109,2.3157,2.3174,2.3195,2.3221,2.3241,2.3275,2.3294,2.3333,2.3345,2.3376,2.3403,2.3447,2.3478,2.3507,2.3516,2.3517,2.3521,2.3513,2.3516,2.3515,2.3517,2.3515,2.3515,2.3514,2.3514,0,2.3084,2.3101,2.3129,2.3163,2.3186,2.3214,2.3243,2.3255,2.3294,2.3314,2.3345,2.3366,2.3407,2.3437,2.3471,2.3492,2.3509,2.3513,2.3516,2.3508,2.3497,2.3503,2.3506,2.3512,2.3513,2.3513,2.3513,2.3513,2.3073,2.3089,2.3126,2.3157,2.3183,2.321,2.3228,2.3256,2.3283,2.3319,2.3337,2.3368,2.3401,2.3449,2.347,2.3494,2.3499,2.3503,2.3504,2.3504,2.3502,2.3493,2.35,2.35,2.35,2.35,2.35,0,2.3066,2.3092,2.312,2.3161,2.3185,2.3202,2.3235,2.3254,2.3281,2.3311,2.3338,2.3374,2.3404,2.3437,2.3469,2.3482,2.3491,2.3489,2.3488,2.3493,2.3496,2.349,2.3482,2.3482,2.3482,2.3482,2.3482,2.3482,2.3065,2.3094,2.3114,2.3156,2.3182,2.3213,2.3231,2.3256,2.3281,2.332,2.3346,2.3368,2.34,2.3435,2.3463,2.3472,2.3483,2.3479,2.349,2.3491,2.3493,2.3494,2.3489,2.3481,2.3481,2.3486,2.3486,2.3486]},{"header":{"parameterUnit":"m.s-1","parameterCategory":1,"la1":30.2991,"la2":30.254,"lo1":-89.0895,"lo2":-89.0444,"dy":0.0017,"dx":0.0017,"nx":28,"ny":28,"refTime":"2024-07-14T03:00:00:Z","depth":0,"parameterNumber":3,"parameterNumberName":"V-component_of_WINDS"},"data":[0,0,0,0,0,0,0,0,0,0,0,0,0,0,0,0,0,0,0,0,0,0,0,0,0,0,0,0,0,0,0,0,0,0,0,0,0,0,0,0,0,0,0,0,0,0,0,0,0,0,0,0,0,0,0,0,0,0,2.6503,2.6505,0,2.6703,2.6706,2.6708,2.6798,2.6798,2.6798,2.6798,2.6996,2.7002,2.7007,0,0,0,0,0,0,0,0,0,0,0,0,0,2.6185,2.619,2.6502,2.6505,2.6507,2.6703,2.6706,2.6708,2.6798,2.6798,2.6798,2.6797,2.6995,2.7001,2.7008,0,0,0,0,0,0,0,0,0,0,0,0,0,2.6348,2.6192,2.6502,2.6576,2.6585,2.6702,2.6706,2.6709,2.6798,2.6798,2.6798,2.6797,2.6992,2.7,2.7009,2.7066,0,0,2.7034,2.7037,0,0,0,0,0,0,0,0,2.6338,2.6359,2.6562,2.6571,2.6581,2.6726,2.6667,2.6828,2.6798,2.6717,2.6798,2.6797,2.6906,2.6921,2.696,2.7075,2.7084,2.7034,2.7039,2.7043,2.7045,0,0,0,0,0,0,0,2.6327,2.6351,2.6582,2.6565,2.6577,2.6595,2.6618,2.6698,2.681,2.6724,2.6731,2.6754,2.6911,2.6951,2.6965,2.7087,2.7034,2.7042,2.7047,2.705,2.7252,2.7252,0,0,0,0,0,0,2.6305,2.6341,2.6575,2.6588,2.6457,2.6601,2.6627,2.6679,2.681,2.683,2.6754,2.6757,2.6937,2.6955,2.6972,2.7045,2.7043,2.7051,2.7055,2.7252,2.7252,2.7253,0,0,0,0,0,0,2.6298,2.6325,2.6567,2.6466,2.6499,2.6607,2.6665,2.6683,2.6724,2.6833,2.6852,2.6775,2.6938,2.6961,2.7041,2.7053,2.7054,2.7062,2.7251,2.7252,2.7252,2.7191,0,0,0,0,0,0,2.6288,2.6322,2.6348,2.6466,2.6504,2.6636,2.6666,2.6688,2.6739,2.6745,2.6858,2.6876,2.6939,2.7028,2.7049,2.7064,2.7068,2.7251,2.7251,2.7252,2.7193,2.719,2.7187,0,0,0,0,0,2.6277,2.6323,2.6349,2.6377,2.6539,2.6637,2.6658,2.6731,2.674,2.6764,2.6833,2.6873,2.7047,2.7036,2.706,2.7078,2.725,2.7251,2.7252,2.7194,2.7191,2.7187,0,0,0,0,0,0,2.6203,2.634,2.6371,2.6457,2.6534,2.6652,2.6686,2.6726,2.6801,2.6804,2.6889,2.6914,2.6985,2.7039,2.7024,2.7136,2.7152,2.7158,2.7099,2.7097,2.7094,2.708,2.7075,0,0,0,0,0,2.6196,2.6267,2.6382,2.6447,2.6484,2.6578,2.6623,2.6672,2.6755,2.6788,2.6863,2.6939,2.7011,2.7057,2.7129,2.72,2.7223,2.7223,2.722,2.7218,2.7222,2.7259,2.7259,2.7256,2.7256,2.7256,0,0,2.6184,2.6268,2.6308,2.6434,2.65,2.6567,2.6605,2.6676,2.6726,2.6798,2.6879,2.6935,2.7025,2.71,2.7137,2.7147,2.7227,2.7219,2.7216,2.7222,2.726,2.726,2.726,2.7256,2.7256,2.7256,0,0,2.6197,2.6269,2.6329,2.6393,2.6492,2.6553,2.6566,2.6677,2.6717,2.6799,2.6853,2.6911,2.7034,2.7095,2.7142,2.7169,2.7207,2.7189,2.7176,2.721,2.721,2.7211,2.7218,2.722,2.7193,2.7193,2.7193,0,2.6169,2.6277,2.6354,2.6421,2.6472,2.6541,2.6599,2.6657,2.6773,2.6805,2.6815,2.6967,2.7033,2.7121,2.7127,2.7163,2.7178,2.7178,2.7205,2.7206,2.7208,2.7215,2.7218,2.719,2.719,2.7191,2.7191,0,2.6235,2.6307,2.6343,2.6454,2.651,2.6572,2.6654,2.67,2.6742,2.68,2.6879,2.6959,2.7047,2.7071,2.7113,2.7162,2.7166,2.7189,2.7206,2.7204,2.7212,2.7216,2.7186,2.7187,2.7188,2.7189,0,0,2.6212,2.6361,2.6373,2.6421,2.6532,2.6588,2.6649,2.6736,2.6772,2.6847,2.6899,2.6998,2.7019,2.7072,2.712,2.715,2.7162,2.717,2.7173,2.7164,2.7217,2.7199,2.7201,2.7187,2.7188,2.7188,2.7209,0,2.6239,2.6357,2.6425,2.6513,2.6577,2.6639,2.6692,2.6763,2.6817,2.6877,2.6935,2.7003,2.7027,2.7058,2.7091,2.7154,2.7174,2.7153,2.7233,2.7235,2.7209,2.7206,2.7189,2.7205,2.7213,2.7213,2.7214,0,2.6288,2.6362,2.6456,2.6554,2.6584,2.6631,2.6713,2.677,2.6849,2.6886,2.6941,2.6989,2.7052,2.7062,2.7147,2.7131,2.7167,2.7201,2.7204,2.7215,2.7225,2.7216,2.7212,2.7213,2.722,2.722,2.7219,0,2.6258,2.6381,2.6453,2.6493,2.661,2.664,2.669,2.6769,2.6814,2.6884,2.6914,2.6989,2.703,2.7085,2.7149,2.7151,2.7226,2.7243,2.7256,2.7254,2.7271,2.7269,2.7271,2.7293,2.7293,2.7293,2.7293,0,2.6281,2.6336,2.6441,2.6485,2.6545,2.662,2.6677,2.6731,2.6799,2.6851,2.6908,2.6955,2.7038,2.7093,2.7143,2.7204,2.7222,2.7251,2.7264,2.7247,2.7243,2.7272,2.7272,2.7294,2.7293,2.7293,2.7293,0,2.626,2.6333,2.6415,2.6517,2.6543,2.6583,2.6669,2.6712,2.6766,2.6831,2.685,2.6935,2.7003,2.7072,2.7164,2.7197,2.7256,2.7273,2.723,2.7237,2.7245,2.7243,2.7267,2.7273,2.729,2.7289,2.7289,0,2.6271,2.6314,2.642,2.6459,2.6508,2.6571,2.6617,2.6689,2.6734,2.6824,2.6854,2.6926,2.6988,2.7092,2.716,2.7229,2.7248,2.7251,2.7259,2.7239,2.7247,2.7243,2.7247,2.7249,2.7249,2.7248,2.7248,0,2.628,2.6312,2.6378,2.6455,2.6508,2.6571,2.6637,2.6665,2.6748,2.6795,2.6866,2.6913,2.7005,2.7075,2.715,2.7197,2.7235,2.7244,2.7251,2.7234,2.7206,2.722,2.7222,2.7244,2.7245,2.7245,2.7245,2.7245,2.6274,2.6314,2.6394,2.6463,2.6519,2.6577,2.6621,2.6679,2.674,2.6822,2.6859,2.6929,2.7,2.7106,2.7151,2.7204,2.7215,2.7225,2.7227,2.7229,2.7223,2.7197,2.7218,2.7218,2.7219,2.7219,2.7219,0,2.6285,2.6338,2.6401,2.649,2.6543,2.6574,2.6646,2.6687,2.6748,2.6813,2.6871,2.6949,2.7015,2.7086,2.7155,2.7183,2.7202,2.7199,2.7198,2.7207,2.7211,2.7198,2.7182,2.7182,2.7182,2.7182,2.7182,2.7182,2.6297,2.6365,2.6405,2.6498,2.6551,2.662,2.6658,2.671,2.6761,2.6846,2.6902,2.6947,2.7013,2.7086,2.7146,2.7165,2.7187,2.7179,2.7202,2.7205,2.7208,2.721,2.7199,2.7183,2.7183,2.7195,2.7195,2.7195]}]]